• In Czech Republic
  • List of Countries
  • For 7 days
  • Water Temperature
  • Satellite Maps
  • Weather Map
  • Weather Widgets
  • user-avatar
    Login

    Hourly Weather Qala i Naw

    Today, 17 December, Sunday

    Time Temperature Precipitation Wind Pressure Humidity
    00:00 +6°C° 0 mm 1 mps 685 mmHg 48%
    01:00 +5°C° 0 mm 1 mps 685 mmHg 50%
    02:00 +5°C° 0 mm 1 mps 685 mmHg 49%
    03:00 +5°C° 0 mm 1 mps 685 mmHg 49%
    04:00 +5°C° 0 mm 1 mps 685 mmHg 50%
    05:00 +5°C° 0 mm 1 mps 685 mmHg 50%
    06:00 +5°C° 0 mm 1 mps 685 mmHg 51%
    07:00 +5°C° 0 mm 1 mps 685 mmHg 51%
    08:00 +7°C° 0 mm 1 mps 686 mmHg 47%
    09:00 +9°C° 0 mm 1 mps 686 mmHg 43%
    10:00 +10°C° 0 mm 2 mps 687 mmHg 40%
    11:00 +12°C° 0 mm 2 mps 687 mmHg 39%
    12:00 +13°C° 0 mm 2 mps 686 mmHg 38%
    13:00 +13°C° 0 mm 2 mps 686 mmHg 38%
    14:00 +13°C° 0 mm 2 mps 686 mmHg 39%
    15:00 +13°C° 0 mm 2 mps 686 mmHg 41%
    16:00 +12°C° 0 mm 2 mps 686 mmHg 42%
    17:00 +10°C° 0 mm 2 mps 686 mmHg 44%
    18:00 +11°C° 0 mm 1 mps 686 mmHg 47%
    19:00 +10°C° 0 mm 1 mps 686 mmHg 49%
    20:00 +9°C° 0 mm 1 mps 686 mmHg 51%
    21:00 +8°C° 0 mm 1 mps 686 mmHg 52%
    22:00 +8°C° 0 mm 1 mps 686 mmHg 54%
    23:00 +8°C° 0 mm 1 mps 686 mmHg 54%

    Tomorrow, 18 December, Monday

    Time Temperature Precipitation Wind Pressure Humidity
    00:00 +7°C° 0 mm 1 mps 685 mmHg 55%
    01:00 +7°C° 0 mm 1 mps 685 mmHg 56%
    02:00 +7°C° 0 mm 1 mps 685 mmHg 56%
    03:00 +6°C° 0 mm 1 mps 685 mmHg 56%
    04:00 +6°C° 0 mm 1 mps 685 mmHg 56%
    05:00 +6°C° 0 mm 1 mps 685 mmHg 57%
    06:00 +6°C° 0 mm 1 mps 686 mmHg 58%
    07:00 +6°C° 0 mm 1 mps 686 mmHg 58%
    08:00 +8°C° 0 mm 1 mps 686 mmHg 51%
    09:00 +11°C° 0 mm 1 mps 687 mmHg 44%
    10:00 +13°C° 0 mm 1 mps 687 mmHg 36%
    11:00 +14°C° 0 mm 1 mps 687 mmHg 34%
    12:00 +15°C° 0 mm 2 mps 686 mmHg 31%
    13:00 +16°C° 0 mm 2 mps 686 mmHg 29%
    14:00 +16°C° 0 mm 2 mps 686 mmHg 30%
    15:00 +15°C° 0 mm 2 mps 685 mmHg 32%
    16:00 +14°C° 0 mm 2 mps 685 mmHg 33%
    17:00 +13°C° 0 mm 2 mps 685 mmHg 37%
    18:00 +12°C° 0 mm 1 mps 685 mmHg 40%
    19:00 +10°C° 0 mm 1 mps 685 mmHg 44%
    20:00 +10°C° 0 mm 1 mps 685 mmHg 44%
    21:00 +10°C° 0 mm 1 mps 685 mmHg 44%
    22:00 +10°C° 0 mm 1 mps 685 mmHg 45%
    23:00 +8°C° 0 mm 2 mps 685 mmHg 45%

    Day after tomorrow, 19 December, Tuesday

    Time Temperature Precipitation Wind Pressure Humidity
    00:00 +8°C° 0 mm 2 mps 685 mmHg 46%
    01:00 +8°C° 0 mm 2 mps 685 mmHg 47%
    02:00 +8°C° 0 mm 2 mps 685 mmHg 48%
    03:00 +8°C° 0 mm 2 mps 685 mmHg 49%
    04:00 +8°C° 0 mm 2 mps 684 mmHg 49%
    05:00 +8°C° 0 mm 2 mps 685 mmHg 50%
    06:00 +8°C° 0 mm 2 mps 685 mmHg 50%
    07:00 +7°C° 0 mm 2 mps 685 mmHg 51%
    08:00 +10°C° 0 mm 2 mps 686 mmHg 44%
    09:00 +13°C° 0 mm 2 mps 686 mmHg 37%
    10:00 +15°C° 0 mm 2 mps 687 mmHg 30%
    11:00 +16°C° 0 mm 2 mps 687 mmHg 28%
    12:00 +17°C° 0 mm 2 mps 686 mmHg 25%
    13:00 +18°C° 0 mm 2 mps 686 mmHg 23%
    14:00 +17°C° 0 mm 2 mps 686 mmHg 24%
    15:00 +16°C° 0 mm 2 mps 686 mmHg 25%
    16:00 +16°C° 0 mm 2 mps 685 mmHg 27%
    17:00 +14°C° 0 mm 2 mps 685 mmHg 29%
    18:00 +13°C° 0 mm 2 mps 685 mmHg 32%
    19:00 +12°C° 0 mm 2 mps 686 mmHg 35%
    20:00 +12°C° 0 mm 2 mps 686 mmHg 35%
    21:00 +10°C° 0 mm 2 mps 686 mmHg 35%
    22:00 +10°C° 0 mm 2 mps 686 mmHg 35%
    23:00 +10°C° 0 mm 2 mps 686 mmHg 35%

    20 December, Wednesday

    Time Temperature Precipitation Wind Pressure Humidity
    00:00 +10°C° 0 mm 3 mps 686 mmHg 36%
    01:00 +9°C° 0 mm 3 mps 686 mmHg 36%
    02:00 +9°C° 0 mm 3 mps 686 mmHg 36%
    03:00 +9°C° 0 mm 3 mps 686 mmHg 36%
    04:00 +9°C° 0 mm 3 mps 685 mmHg 36%
    05:00 +9°C° 0 mm 3 mps 686 mmHg 36%
    06:00 +9°C° 0 mm 3 mps 686 mmHg 36%
    07:00 +8°C° 0 mm 3 mps 687 mmHg 36%
    08:00 +10°C° 0 mm 3 mps 687 mmHg 32%
    09:00 +14°C° 0 mm 2 mps 688 mmHg 28%
    10:00 +16°C° 0 mm 2 mps 688 mmHg 24%
    11:00 +16°C° 0 mm 2 mps 688 mmHg 24%
    12:00 +17°C° 0 mm 2 mps 688 mmHg 23%
    13:00 +18°C° 0 mm 2 mps 688 mmHg 23%
    14:00 +17°C° 0 mm 2 mps 688 mmHg 25%
    15:00 +17°C° 0 mm 2 mps 688 mmHg 26%
    16:00 +16°C° 0 mm 2 mps 688 mmHg 28%
    17:00 +14°C° 0 mm 2 mps 688 mmHg 32%
    18:00 +13°C° 0 mm 1 mps 688 mmHg 36%
    19:00 +11°C° 0 mm 1 mps 688 mmHg 40%
    20:00 +10°C° 0 mm 1 mps 688 mmHg 41%
    21:00 +9°C° 0 mm 0 mps 688 mmHg 42%
    22:00 +8°C° 0 mm 0 mps 688 mmHg 43%
    23:00 +8°C° 0 mm 0 mps 688 mmHg 44%

    21 December, Thursday

    Time Temperature Precipitation Wind Pressure Humidity
    00:00 +7°C° 0 mm 0 mps 688 mmHg 45%
    01:00 +7°C° 0 mm 0 mps 688 mmHg 46%
    02:00 +7°C° 0 mm 0 mps 688 mmHg 46%
    03:00 +7°C° 0 mm 0 mps 688 mmHg 46%
    04:00 +6°C° 0 mm 0 mps 687 mmHg 47%
    05:00 +7°C° 0 mm 1 mps 688 mmHg 46%
    06:00 +7°C° 0 mm 1 mps 688 mmHg 46%
    07:00 +7°C° 0 mm 1 mps 688 mmHg 46%
    08:00 +10°C° 0 mm 1 mps 689 mmHg 40%
    09:00 +12°C° 0 mm 1 mps 689 mmHg 34%
    10:00 +14°C° 0 mm 1 mps 690 mmHg 28%
    11:00 +15°C° 0 mm 1 mps 689 mmHg 26%
    12:00 +16°C° 0 mm 1 mps 689 mmHg 24%
    13:00 +16°C° 0 mm 1 mps 688 mmHg 22%
    14:00 +16°C° 0 mm 1 mps 688 mmHg 23%
    15:00 +16°C° 0 mm 1 mps 688 mmHg 25%
    16:00 +15°C° 0 mm 1 mps 687 mmHg 27%
    17:00 +14°C° 0 mm 1 mps 687 mmHg 29%
    18:00 +12°C° 0 mm 1 mps 687 mmHg 31%
    19:00 +11°C° 0 mm 1 mps 687 mmHg 34%
    20:00 +11°C° 0 mm 1 mps 686 mmHg 33%
    21:00 +10°C° 0 mm 1 mps 686 mmHg 33%
    22:00 +10°C° 0 mm 1 mps 686 mmHg 32%
    23:00 +10°C° 0 mm 1 mps 686 mmHg 32%

    22 December, Friday

    Time Temperature Precipitation Wind Pressure Humidity
    00:00 +10°C° 0 mm 1 mps 685 mmHg 32%
    01:00 +9°C° 0 mm 2 mps 685 mmHg 32%
    02:00 +8°C° 0 mm 2 mps 685 mmHg 32%
    03:00 +8°C° 0 mm 2 mps 684 mmHg 32%
    04:00 +8°C° 0 mm 2 mps 684 mmHg 32%
    05:00 +8°C° 0 mm 2 mps 684 mmHg 32%
    06:00 +8°C° 0 mm 2 mps 685 mmHg 33%
    07:00 +8°C° 0 mm 2 mps 685 mmHg 33%
    08:00 +10°C° 0 mm 2 mps 685 mmHg 30%
    09:00 +14°C° 0 mm 2 mps 686 mmHg 26%
    10:00 +16°C° 0 mm 2 mps 686 mmHg 23%
    11:00 +17°C° 0 mm 2 mps 685 mmHg 22%
    12:00 +18°C° 0 mm 2 mps 685 mmHg 21%
    13:00 +19°C° 0 mm 2 mps 684 mmHg 20%
    14:00 +18°C° 0 mm 2 mps 684 mmHg 22%
    15:00 +17°C° 0 mm 2 mps 683 mmHg 24%
    16:00 +18°C° 0 mm 1 mps 683 mmHg 26%
    17:00 +16°C° 0 mm 2 mps 683 mmHg 28%
    18:00 +15°C° 0 mm 2 mps 683 mmHg 29%
    19:00 +13°C° 0 mm 2 mps 683 mmHg 31%
    20:00 +12°C° 0 mm 3 mps 683 mmHg 31%
    21:00 +12°C° 0 mm 3 mps 683 mmHg 32%
    22:00 +12°C° 0 mm 3 mps 683 mmHg 32%
    23:00 +12°C° 0 mm 3 mps 682 mmHg 33%
    Show more